Weather History for PAKW - February, 2012

Change the Weather History Date:

Wednesday, February 8, 2012

  Actual Average (PAHY) Record (PAHY)
Temperature  
Mean Temperature 46 °F -  
Max Temperature 52 °F 39 °F - (-1)
Min Temperature 41 °F 32 °F - (-1)
Degree Days  
Heating Degree Days 18    
Moisture  
Dew Point 37 °F    
Average Humidity 76    
Maximum Humidity 100    
Minimum Humidity 49    
Precipitation  
Precipitation 0.10 in - - ()
Sea Level Pressure  
Sea Level Pressure 29.88 in    
Wind  
Wind Speed 3 mph (ENE)    
Max Wind Speed 9 mph    
Max Gust Speed -    
Visibility 10 miles    
Events Rain    
Averages and records for this station are not official NWS values.
T = Trace of Precipitation, MM = Missing Value Source: NWS Daily Summary

Daily Weather History Graph

Daily Weather History Graph

Search for Another Location

Airport or City:

Trip Planner

Search our weather history database for the weather conditions in past years. The results will help you decide how hot, cold, wet, or windy it might be!

Date:

Astronomy

Feb. 08, 2012 Rise Set
Actual Time 7:32 AM AKST 4:41 PM AKST
Civil Twilight 6:52 AM AKST 5:21 PM AKST
Nautical Twilight 6:09 AM AKST 6:04 PM AKST
Astronomical Twilight 5:26 AM AKST 6:47 PM AKST
Moon 6:35 PM AKST (2/8) 7:19 AM AKST (2/8)
Length of Visible Light 10h 28m
Length of Day
9h 09m
Full, 99% of the Moon is Illuminated
Feb 8
Full
Feb 14
Last Quarter
Feb 21
New
Feb 29
First Quarter
Mar 8
Full

Hourly Weather History & Observations

Time (AKST) Temp. Windchill Dew Point Humidity Pressure Visibility Wind Dir Wind Speed Gust Speed Precip Events Conditions
12:53 AM 46.0 °F 44.8 °F 28.0 °F 50% 29.71 in 10.0 mi Variable 3.5 mph - N/A   Clear
1:53 AM 45.0 °F - 28.0 °F 52% 29.72 in 10.0 mi Calm Calm - N/A   Clear
2:53 AM 46.0 °F 42.5 °F 28.0 °F 50% 29.72 in 10.0 mi North 6.9 mph - N/A   Overcast
3:53 AM 46.9 °F - 28.9 °F 50% 29.72 in 10.0 mi Variable 3.5 mph - N/A   Overcast
4:53 AM 48.9 °F - 32.0 °F 52% 29.72 in 10.0 mi Variable 5.8 mph - N/A   Overcast
5:53 AM 50.0 °F - 33.1 °F 52% 29.71 in 10.0 mi NE 9.2 mph - N/A   Overcast
6:53 AM 48.9 °F - 32.0 °F 52% 29.72 in 10.0 mi Calm Calm - N/A   Overcast
7:53 AM 50.0 °F - 34.0 °F 54% 29.73 in 10.0 mi Calm Calm - N/A   Overcast
8:53 AM 50.0 °F - 33.1 °F 52% 29.74 in 10.0 mi Variable 4.6 mph - N/A   Overcast
9:53 AM 52.0 °F - 33.1 °F 49% 29.75 in 10.0 mi Variable 6.9 mph - N/A   Overcast
10:53 AM 51.1 °F - 34.0 °F 52% 29.77 in 10.0 mi SSE 9.2 mph - N/A   Overcast
11:53 AM 51.1 °F - 35.1 °F 54% 29.79 in 10.0 mi Variable 4.6 mph - N/A   Overcast
12:53 PM 48.9 °F - 39.0 °F 69% 29.80 in 10.0 mi Variable 5.8 mph - 0.00 in Rain Light Rain
1:53 PM 46.9 °F - 39.0 °F 74% 29.83 in 10.0 mi SSW 6.9 mph - 0.01 in Rain Light Rain
2:53 PM 44.1 °F - 41.0 °F 89% 29.87 in 10.0 mi Calm Calm - 0.02 in Rain Light Rain
3:53 PM 43.0 °F - 39.9 °F 89% 29.90 in 10.0 mi Calm Calm - 0.02 in Rain Light Rain
4:53 PM 43.0 °F - 39.9 °F 89% 29.94 in 10.0 mi Calm Calm - 0.02 in Rain Light Rain
5:37 PM 42.8 °F - 39.2 °F 87% 29.96 in 10.0 mi Calm Calm - 0.01 in   Overcast
5:53 PM 42.1 °F 40.2 °F 41.0 °F 96% 29.97 in 10.0 mi North 3.5 mph - 0.01 in   Overcast
6:53 PM 42.1 °F - 39.9 °F 92% 29.99 in 10.0 mi Calm Calm - N/A   Overcast
7:53 PM 41.0 °F - 39.9 °F 96% 30.01 in 5.0 mi Calm Calm - 0.01 in Rain Light Rain
8:09 PM 41.0 °F - 41.0 °F 100% 30.02 in 6.0 mi Calm Calm - 0.00 in Rain Light Rain
8:45 PM 42.8 °F - 41.0 °F 93% 30.03 in 10.0 mi Calm Calm - 0.01 in Rain Light Rain
8:53 PM 42.1 °F 40.2 °F 41.0 °F 96% 30.04 in 9.0 mi NE 3.5 mph - 0.01 in Rain Light Rain
9:00 PM 42.8 °F - 41.0 °F 93% 30.04 in 9.0 mi Calm Calm - 0.00 in Rain Light Rain
9:53 PM 41.0 °F - 41.0 °F 100% 30.05 in 10.0 mi Calm Calm - 0.00 in   Overcast
10:25 PM 41.0 °F - 41.0 °F 100% 30.06 in 10.0 mi Calm Calm - 0.00 in   Overcast
10:53 PM 41.0 °F - 39.9 °F 96% 30.05 in 10.0 mi Calm Calm - 0.00 in   Overcast
11:53 PM 42.1 °F - 41.0 °F 96% 30.06 in 10.0 mi Calm Calm - N/A   Overcast